owner,sensor,date,latitude,longitude,air_pressure(mBar),qcFlag 
TABS,ioos:station:wmo:42047:1,2010-12-01T00:00:00Z,27.8966,-93.5973,1024.2,11111222 
TABS,ioos:station:wmo:42047:1,2010-12-01T00:30:00Z,27.8966,-93.5973,1024.97,11111222 
TABS,ioos:station:wmo:42047:1,2010-12-01T01:00:00Z,27.8966,-93.5973,1025.12,11111222 
TABS,ioos:station:wmo:42047:1,2010-12-01T01:30:00Z,27.8966,-93.5973,1025.76,11111222 
TABS,ioos:station:wmo:42047:1,2010-12-01T02:00:00Z,27.8966,-93.5973,1025.93,11111222 
TABS,ioos:station:wmo:42047:1,2010-12-01T02:30:00Z,27.8966,-93.5973,1025.98,11111222 
TABS,ioos:station:wmo:42047:1,2010-12-01T03:00:00Z,27.8966,-93.5973,1026.41,11111222 
TABS,ioos:station:wmo:42047:1,2010-12-01T03:30:00Z,27.8966,-93.5973,1026.63,11111222 
TABS,ioos:station:wmo:42047:1,2010-12-01T04:00:00Z,27.8966,-93.5973,1026.92,11111222 
TABS,ioos:station:wmo:42047:1,2010-12-01T04:30:00Z,27.8966,-93.5973,1027.05,11111222 
TABS,ioos:station:wmo:42047:1,2010-12-01T05:00:00Z,27.8966,-93.5973,1026.99,11111222 
TABS,ioos:station:wmo:42047:1,2010-12-01T05:30:00Z,27.8966,-93.5973,1026.87,11111222 
TABS,ioos:station:wmo:42047:1,2010-12-01T06:00:00Z,27.8966,-93.5973,1027.11,11111222 
TABS,ioos:station:wmo:42047:1,2010-12-01T06:30:00Z,27.8966,-93.5973,1026.89,11111222 
TABS,ioos:station:wmo:42047:1,2010-12-01T07:00:00Z,27.8966,-93.5973,1026.88,11111222 
TABS,ioos:station:wmo:42047:1,2010-12-01T07:30:00Z,27.8966,-93.5973,1026.62,11111222 
TABS,ioos:station:wmo:42047:1,2010-12-01T08:00:00Z,27.8966,-93.5973,1027.12,11111222 
TABS,ioos:station:wmo:42047:1,2010-12-01T08:30:00Z,27.8966,-93.5973,1026.96,11111222 
TABS,ioos:station:wmo:42047:1,2010-12-01T09:00:00Z,27.8966,-93.5973,1027.07,11111222 
TABS,ioos:station:wmo:42047:1,2010-12-01T09:30:00Z,27.8966,-93.5973,1027.17,11111222 
TABS,ioos:station:wmo:42047:1,2010-12-01T10:00:00Z,27.8966,-93.5973,1027.26,11111222 
TABS,ioos:station:wmo:42047:1,2010-12-01T10:30:00Z,27.8966,-93.5973,1027.04,11111222 
TABS,ioos:station:wmo:42047:1,2010-12-01T11:00:00Z,27.8966,-93.5973,1026.99,11111222 
TABS,ioos:station:wmo:42047:1,2010-12-01T11:30:00Z,27.8966,-93.5973,1027.41,11111222 
TABS,ioos:station:wmo:42047:1,2010-12-01T12:00:00Z,27.8966,-93.5973,1027.55,11111222 
TABS,ioos:station:wmo:42047:1,2010-12-01T12:30:00Z,27.8966,-93.5973,1027.92,11111222 
TABS,ioos:station:wmo:42047:1,2010-12-01T13:00:00Z,27.8966,-93.5973,1028.11,11111222 
TABS,ioos:station:wmo:42047:1,2010-12-01T13:30:00Z,27.8966,-93.5973,1028.68,11111222 
TABS,ioos:station:wmo:42047:1,2010-12-01T14:00:00Z,27.8966,-93.5973,1029.02,11111222 
TABS,ioos:station:wmo:42047:1,2010-12-01T14:30:00Z,27.8966,-93.5973,1029.2,11111222 
TABS,ioos:station:wmo:42047:1,2010-12-01T15:00:00Z,27.8966,-93.5973,1029.69,11111222 
TABS,ioos:station:wmo:42047:1,2010-12-01T15:30:00Z,27.8966,-93.5973,1029.84,11111222 
TABS,ioos:station:wmo:42047:1,2010-12-01T16:00:00Z,27.8966,-93.5973,1029.86,11111222 
TABS,ioos:station:wmo:42047:1,2010-12-01T16:30:00Z,27.8966,-93.5973,1029.73,11111222 
TABS,ioos:station:wmo:42047:1,2010-12-01T17:00:00Z,27.8966,-93.5973,1029.31,11111222 
TABS,ioos:station:wmo:42047:1,2010-12-01T17:30:00Z,27.8966,-93.5973,1028.87,11111222 
TABS,ioos:station:wmo:42047:1,2010-12-01T18:00:00Z,27.8966,-93.5973,1028.33,11111222 
TABS,ioos:station:wmo:42047:1,2010-12-01T18:30:00Z,27.8966,-93.5973,1027.9,11111222 
TABS,ioos:station:wmo:42047:1,2010-12-01T19:00:00Z,27.8966,-93.5973,1027.5,11111222 
TABS,ioos:station:wmo:42047:1,2010-12-01T19:30:00Z,27.8966,-93.5973,1026.99,11111222 
TABS,ioos:station:wmo:42047:1,2010-12-01T20:00:00Z,27.8966,-93.5973,1026.65,11111222 
TABS,ioos:station:wmo:42047:1,2010-12-01T20:30:00Z,27.8966,-93.5973,1026.37,11111222 
TABS,ioos:station:wmo:42047:1,2010-12-01T21:00:00Z,27.8966,-93.5973,1026.31,11111222 
TABS,ioos:station:wmo:42047:1,2010-12-01T21:30:00Z,27.8966,-93.5973,1026.06,11111222 
TABS,ioos:station:wmo:42047:1,2010-12-01T22:00:00Z,27.8966,-93.5973,1025.86,11111222 
TABS,ioos:station:wmo:42047:1,2010-12-01T22:30:00Z,27.8966,-93.5973,1025.92,11111222 
TABS,ioos:station:wmo:42047:1,2010-12-01T23:00:00Z,27.8966,-93.5973,1025.82,11111222 
TABS,ioos:station:wmo:42047:1,2010-12-01T23:30:00Z,27.8966,-93.5973,1025.59,11111222 
TABS,ioos:station:wmo:42047:1,2010-12-02T00:00:00Z,27.8966,-93.5973,1025.72,11111222 
TABS,ioos:station:wmo:42047:1,2010-12-02T00:30:00Z,27.8966,-93.5973,1025.8,11111222 
TABS,ioos:station:wmo:42047:1,2010-12-02T01:00:00Z,27.8966,-93.5973,1025.95,11111222 
TABS,ioos:station:wmo:42047:1,2010-12-02T01:30:00Z,27.8966,-93.5973,1026.0,11111222 
TABS,ioos:station:wmo:42047:1,2010-12-02T02:00:00Z,27.8966,-93.5973,1026.17,11111222 
TABS,ioos:station:wmo:42047:1,2010-12-02T02:30:00Z,27.8966,-93.5973,1026.16,11111222 
TABS,ioos:station:wmo:42047:1,2010-12-02T03:00:00Z,27.8966,-93.5973,1026.01,11111222 
TABS,ioos:station:wmo:42047:1,2010-12-02T03:30:00Z,27.8966,-93.5973,1026.14,11111222 
TABS,ioos:station:wmo:42047:1,2010-12-02T04:00:00Z,27.8966,-93.5973,1026.13,11111222 
TABS,ioos:station:wmo:42047:1,2010-12-02T04:30:00Z,27.8966,-93.5973,1026.25,11111222 
TABS,ioos:station:wmo:42047:1,2010-12-02T05:00:00Z,27.8966,-93.5973,1025.96,11111222 
TABS,ioos:station:wmo:42047:1,2010-12-02T05:30:00Z,27.8966,-93.5973,1025.86,11111222 
TABS,ioos:station:wmo:42047:1,2010-12-02T06:00:00Z,27.8966,-93.5973,1025.65,11111222 
TABS,ioos:station:wmo:42047:1,2010-12-02T06:30:00Z,27.8966,-93.5973,1025.39,11111222 
TABS,ioos:station:wmo:42047:1,2010-12-02T07:00:00Z,27.8966,-93.5973,1025.32,11111222 
TABS,ioos:station:wmo:42047:1,2010-12-02T07:30:00Z,27.8966,-93.5973,1025.1,11111222 
TABS,ioos:station:wmo:42047:1,2010-12-02T08:00:00Z,27.8966,-93.5973,1025.22,11111222 
TABS,ioos:station:wmo:42047:1,2010-12-02T08:30:00Z,27.8966,-93.5973,1025.16,11111222 
TABS,ioos:station:wmo:42047:1,2010-12-02T09:00:00Z,27.8966,-93.5973,1025.07,11111222 
TABS,ioos:station:wmo:42047:1,2010-12-02T09:30:00Z,27.8966,-93.5973,1024.93,11111222 
TABS,ioos:station:wmo:42047:1,2010-12-02T10:00:00Z,27.8966,-93.5973,1025.07,11111222 
TABS,ioos:station:wmo:42047:1,2010-12-02T10:30:00Z,27.8966,-93.5973,1025.21,11111222 
TABS,ioos:station:wmo:42047:1,2010-12-02T11:00:00Z,27.8966,-93.5973,1025.14,11111222 
TABS,ioos:station:wmo:42047:1,2010-12-02T11:30:00Z,27.8966,-93.5973,1025.44,11111222 
TABS,ioos:station:wmo:42047:1,2010-12-02T12:00:00Z,27.8966,-93.5973,1025.35,11111222 
TABS,ioos:station:wmo:42047:1,2010-12-02T12:30:00Z,27.8966,-93.5973,1025.67,11111222 
TABS,ioos:station:wmo:42047:1,2010-12-02T13:00:00Z,27.8966,-93.5973,1025.7,11111222 
TABS,ioos:station:wmo:42047:1,2010-12-02T13:30:00Z,27.8966,-93.5973,1025.64,11111222 
TABS,ioos:station:wmo:42047:1,2010-12-02T14:00:00Z,27.8966,-93.5973,1025.61,11111222 
TABS,ioos:station:wmo:42047:1,2010-12-02T14:30:00Z,27.8966,-93.5973,1025.84,11111222 
TABS,ioos:station:wmo:42047:1,2010-12-02T15:00:00Z,27.8966,-93.5973,1025.99,11111222 
TABS,ioos:station:wmo:42047:1,2010-12-02T15:30:00Z,27.8966,-93.5973,1026.42,11111222 
TABS,ioos:station:wmo:42047:1,2010-12-02T16:00:00Z,27.8966,-93.5973,1026.74,11111222 
TABS,ioos:station:wmo:42047:1,2010-12-02T16:30:00Z,27.8966,-93.5973,1026.44,11111222 
TABS,ioos:station:wmo:42047:1,2010-12-02T17:00:00Z,27.8966,-93.5973,1026.14,11111222 
TABS,ioos:station:wmo:42047:1,2010-12-02T17:30:00Z,27.8966,-93.5973,1025.7,11111222 
TABS,ioos:station:wmo:42047:1,2010-12-02T18:00:00Z,27.8966,-93.5973,1025.13,11111222 
TABS,ioos:station:wmo:42047:1,2010-12-02T18:30:00Z,27.8966,-93.5973,1024.77,11111222 
TABS,ioos:station:wmo:42047:1,2010-12-02T19:00:00Z,27.8966,-93.5973,1024.52,11111222 
TABS,ioos:station:wmo:42047:1,2010-12-02T19:30:00Z,27.8966,-93.5973,1024.2,11111222 
TABS,ioos:station:wmo:42047:1,2010-12-02T20:00:00Z,27.8966,-93.5973,1023.88,11111222 
TABS,ioos:station:wmo:42047:1,2010-12-02T20:30:00Z,27.8966,-93.5973,1023.59,11111222 
TABS,ioos:station:wmo:42047:1,2010-12-02T21:00:00Z,27.8966,-93.5973,1023.62,11111222 
TABS,ioos:station:wmo:42047:1,2010-12-02T21:30:00Z,27.8966,-93.5973,1023.6,11111222 
TABS,ioos:station:wmo:42047:1,2010-12-02T22:00:00Z,27.8966,-93.5973,1023.67,11111222 
TABS,ioos:station:wmo:42047:1,2010-12-02T22:30:00Z,27.8966,-93.5973,1023.84,11111222 
TABS,ioos:station:wmo:42047:1,2010-12-02T23:00:00Z,27.8966,-93.5973,1023.88,11111222 
TABS,ioos:station:wmo:42047:1,2010-12-02T23:30:00Z,27.8966,-93.5973,1023.84,11111222 
TABS,ioos:station:wmo:42047:1,2010-12-03T00:00:00Z,27.8966,-93.5973,1023.92,11111222 
TABS,ioos:station:wmo:42047:1,2010-12-03T00:30:00Z,27.8966,-93.5973,1023.74,11111222 
TABS,ioos:station:wmo:42047:1,2010-12-03T01:00:00Z,27.8966,-93.5973,1023.66,11111222 
TABS,ioos:station:wmo:42047:1,2010-12-03T01:30:00Z,27.8966,-93.5973,1023.7,11111222 
TABS,ioos:station:wmo:42047:1,2010-12-03T02:00:00Z,27.8966,-93.5973,1023.83,11111222 
TABS,ioos:station:wmo:42047:1,2010-12-03T02:30:00Z,27.8966,-93.5973,1023.91,11111222 
TABS,ioos:station:wmo:42047:1,2010-12-03T03:00:00Z,27.8966,-93.5973,1024.11,11111222 
TABS,ioos:station:wmo:42047:1,2010-12-03T03:30:00Z,27.8966,-93.5973,1024.03,11111222 
TABS,ioos:station:wmo:42047:1,2010-12-03T04:00:00Z,27.8966,-93.5973,1023.88,11111222 
TABS,ioos:station:wmo:42047:1,2010-12-03T04:30:00Z,27.8966,-93.5973,1023.77,11111222 
TABS,ioos:station:wmo:42047:1,2010-12-03T05:00:00Z,27.8966,-93.5973,1023.7,11111222 
TABS,ioos:station:wmo:42047:1,2010-12-03T05:30:00Z,27.8966,-93.5973,1023.65,11111222 
TABS,ioos:station:wmo:42047:1,2010-12-03T06:00:00Z,27.8966,-93.5973,1023.51,11111222 
TABS,ioos:station:wmo:42047:1,2010-12-03T06:30:00Z,27.8966,-93.5973,1023.38,11111222 
TABS,ioos:station:wmo:42047:1,2010-12-03T07:00:00Z,27.8966,-93.5973,1023.23,11111222 
TABS,ioos:station:wmo:42047:1,2010-12-03T07:30:00Z,27.8966,-93.5973,1023.2,11111222 
TABS,ioos:station:wmo:42047:1,2010-12-03T08:00:00Z,27.8966,-93.5973,1023.04,11111222 
TABS,ioos:station:wmo:42047:1,2010-12-03T08:30:00Z,27.8966,-93.5973,1022.99,11111222 
TABS,ioos:station:wmo:42047:1,2010-12-03T09:00:00Z,27.8966,-93.5973,1022.88,11111222 
TABS,ioos:station:wmo:42047:1,2010-12-03T09:30:00Z,27.8966,-93.5973,1022.75,11111222 
TABS,ioos:station:wmo:42047:1,2010-12-03T10:00:00Z,27.8966,-93.5973,1022.61,11111222 
TABS,ioos:station:wmo:42047:1,2010-12-03T10:30:00Z,27.8966,-93.5973,1022.64,11111222 
TABS,ioos:station:wmo:42047:1,2010-12-03T11:00:00Z,27.8966,-93.5973,1022.78,11111222 
TABS,ioos:station:wmo:42047:1,2010-12-03T11:30:00Z,27.8966,-93.5973,1022.83,11111222 
TABS,ioos:station:wmo:42047:1,2010-12-03T12:00:00Z,27.8966,-93.5973,1022.99,11111222 
TABS,ioos:station:wmo:42047:1,2010-12-03T12:30:00Z,27.8966,-93.5973,1023.12,11111222 
TABS,ioos:station:wmo:42047:1,2010-12-03T13:00:00Z,27.8966,-93.5973,1023.37,11111222 
TABS,ioos:station:wmo:42047:1,2010-12-03T13:30:00Z,27.8966,-93.5973,1023.57,11111222 
TABS,ioos:station:wmo:42047:1,2010-12-03T14:00:00Z,27.8966,-93.5973,1023.9,11111222 
TABS,ioos:station:wmo:42047:1,2010-12-03T14:30:00Z,27.8966,-93.5973,1024.09,11111222 
TABS,ioos:station:wmo:42047:1,2010-12-03T15:00:00Z,27.8966,-93.5973,1024.56,11111222 
TABS,ioos:station:wmo:42047:1,2010-12-03T15:30:00Z,27.8966,-93.5973,1024.71,11111222 
TABS,ioos:station:wmo:42047:1,2010-12-03T16:00:00Z,27.8966,-93.5973,1024.64,11111222 
TABS,ioos:station:wmo:42047:1,2010-12-03T16:30:00Z,27.8966,-93.5973,1024.4,11111222 
TABS,ioos:station:wmo:42047:1,2010-12-03T17:00:00Z,27.8966,-93.5973,1024.03,11111222 
TABS,ioos:station:wmo:42047:1,2010-12-03T17:30:00Z,27.8966,-93.5973,1023.42,11111222 
TABS,ioos:station:wmo:42047:1,2010-12-03T18:00:00Z,27.8966,-93.5973,1022.84,11111222 
TABS,ioos:station:wmo:42047:1,2010-12-03T18:30:00Z,27.8966,-93.5973,1022.44,11111222 
TABS,ioos:station:wmo:42047:1,2010-12-03T19:00:00Z,27.8966,-93.5973,1021.87,11111222 
TABS,ioos:station:wmo:42047:1,2010-12-03T19:30:00Z,27.8966,-93.5973,1021.36,11111222 
TABS,ioos:station:wmo:42047:1,2010-12-03T20:00:00Z,27.8966,-93.5973,1021.05,11111222 
TABS,ioos:station:wmo:42047:1,2010-12-03T20:30:00Z,27.8966,-93.5973,1021.05,11111222 
TABS,ioos:station:wmo:42047:1,2010-12-03T21:00:00Z,27.8966,-93.5973,1020.98,11111222 
TABS,ioos:station:wmo:42047:1,2010-12-03T21:30:00Z,27.8966,-93.5973,1021.02,11111222 
TABS,ioos:station:wmo:42047:1,2010-12-03T22:00:00Z,27.8966,-93.5973,1021.03,11111222 
TABS,ioos:station:wmo:42047:1,2010-12-03T22:30:00Z,27.8966,-93.5973,1020.8,11111222 
TABS,ioos:station:wmo:42047:1,2010-12-03T23:00:00Z,27.8966,-93.5973,1020.58,11111222 
TABS,ioos:station:wmo:42047:1,2010-12-03T23:30:00Z,27.8966,-93.5973,1020.54,11111222 
TABS,ioos:station:wmo:42047:1,2010-12-04T00:00:00Z,27.8966,-93.5973,1020.74,11111222 
TABS,ioos:station:wmo:42047:1,2010-12-04T00:30:00Z,27.8966,-93.5973,1020.84,11111222 
TABS,ioos:station:wmo:42047:1,2010-12-04T01:00:00Z,27.8966,-93.5973,1020.93,11111222 
TABS,ioos:station:wmo:42047:1,2010-12-04T01:30:00Z,27.8966,-93.5973,1020.98,11111222 
TABS,ioos:station:wmo:42047:1,2010-12-04T02:00:00Z,27.8966,-93.5973,1021.18,11111222 
TABS,ioos:station:wmo:42047:1,2010-12-04T02:30:00Z,27.8966,-93.5973,1021.21,11111222 
TABS,ioos:station:wmo:42047:1,2010-12-04T03:00:00Z,27.8966,-93.5973,1021.07,11111222 
TABS,ioos:station:wmo:42047:1,2010-12-04T03:30:00Z,27.8966,-93.5973,1021.0,11111222 
TABS,ioos:station:wmo:42047:1,2010-12-04T04:00:00Z,27.8966,-93.5973,1020.75,11111222 
TABS,ioos:station:wmo:42047:1,2010-12-04T04:30:00Z,27.8966,-93.5973,1020.58,11111222 
TABS,ioos:station:wmo:42047:1,2010-12-04T05:00:00Z,27.8966,-93.5973,1020.49,11111222 
TABS,ioos:station:wmo:42047:1,2010-12-04T05:30:00Z,27.8966,-93.5973,1020.11,11111222 
TABS,ioos:station:wmo:42047:1,2010-12-04T06:00:00Z,27.8966,-93.5973,1019.99,11111222 
TABS,ioos:station:wmo:42047:1,2010-12-04T06:30:00Z,27.8966,-93.5973,1019.65,11111222 
TABS,ioos:station:wmo:42047:1,2010-12-04T07:00:00Z,27.8966,-93.5973,1019.39,11111222 
TABS,ioos:station:wmo:42047:1,2010-12-04T07:30:00Z,27.8966,-93.5973,1019.11,11111222 
TABS,ioos:station:wmo:42047:1,2010-12-04T08:00:00Z,27.8966,-93.5973,1018.71,11111222 
TABS,ioos:station:wmo:42047:1,2010-12-04T08:30:00Z,27.8966,-93.5973,1018.45,11111222 
TABS,ioos:station:wmo:42047:1,2010-12-04T09:00:00Z,27.8966,-93.5973,1018.44,11111222 
TABS,ioos:station:wmo:42047:1,2010-12-04T09:30:00Z,27.8966,-93.5973,1018.28,11111222 
TABS,ioos:station:wmo:42047:1,2010-12-04T10:00:00Z,27.8966,-93.5973,1018.06,11111222 
TABS,ioos:station:wmo:42047:1,2010-12-04T10:30:00Z,27.8966,-93.5973,1017.93,11111222 
TABS,ioos:station:wmo:42047:1,2010-12-04T11:00:00Z,27.8966,-93.5973,1017.55,11111222 
TABS,ioos:station:wmo:42047:1,2010-12-04T11:30:00Z,27.8966,-93.5973,1017.75,11111222 
TABS,ioos:station:wmo:42047:1,2010-12-04T12:00:00Z,27.8966,-93.5973,1018.02,11111222 
TABS,ioos:station:wmo:42047:1,2010-12-04T12:30:00Z,27.8966,-93.5973,1018.28,11111222 
TABS,ioos:station:wmo:42047:1,2010-12-04T13:00:00Z,27.8966,-93.5973,1018.46,11111222 
TABS,ioos:station:wmo:42047:1,2010-12-04T13:30:00Z,27.8966,-93.5973,1018.77,11111222 
TABS,ioos:station:wmo:42047:1,2010-12-04T14:00:00Z,27.8966,-93.5973,1019.03,11111222 
TABS,ioos:station:wmo:42047:1,2010-12-04T14:30:00Z,27.8966,-93.5973,1019.42,11111222 
TABS,ioos:station:wmo:42047:1,2010-12-04T15:00:00Z,27.8966,-93.5973,1019.65,11111222 
TABS,ioos:station:wmo:42047:1,2010-12-04T15:30:00Z,27.8966,-93.5973,1019.95,11111222 
TABS,ioos:station:wmo:42047:1,2010-12-04T16:00:00Z,27.8966,-93.5973,1020.14,11111222 
TABS,ioos:station:wmo:42047:1,2010-12-04T16:30:00Z,27.8966,-93.5973,1020.35,11111222 
TABS,ioos:station:wmo:42047:1,2010-12-04T17:00:00Z,27.8966,-93.5973,1020.25,11111222 
TABS,ioos:station:wmo:42047:1,2010-12-04T17:30:00Z,27.8966,-93.5973,1019.74,11111222 
TABS,ioos:station:wmo:42047:1,2010-12-04T18:00:00Z,27.8966,-93.5973,1019.11,11111222 
TABS,ioos:station:wmo:42047:1,2010-12-04T18:30:00Z,27.8966,-93.5973,1018.72,11111222 
TABS,ioos:station:wmo:42047:1,2010-12-04T19:00:00Z,27.8966,-93.5973,1018.29,11111222 
TABS,ioos:station:wmo:42047:1,2010-12-04T19:30:00Z,27.8966,-93.5973,1017.87,11111222 
TABS,ioos:station:wmo:42047:1,2010-12-04T20:00:00Z,27.8966,-93.5973,1017.65,11111222 
TABS,ioos:station:wmo:42047:1,2010-12-04T20:30:00Z,27.8966,-93.5973,1017.44,11111222 
TABS,ioos:station:wmo:42047:1,2010-12-04T21:00:00Z,27.8966,-93.5973,1017.33,11111222 
TABS,ioos:station:wmo:42047:1,2010-12-04T21:30:00Z,27.8966,-93.5973,1017.62,11111222 
TABS,ioos:station:wmo:42047:1,2010-12-04T22:00:00Z,27.8966,-93.5973,1017.74,11111222 
TABS,ioos:station:wmo:42047:1,2010-12-04T22:30:00Z,27.8966,-93.5973,1017.55,11111222 
TABS,ioos:station:wmo:42047:1,2010-12-04T23:00:00Z,27.8966,-93.5973,1017.9,11111222 
TABS,ioos:station:wmo:42047:1,2010-12-04T23:30:00Z,27.8966,-93.5973,1018.21,11111222 
TABS,ioos:station:wmo:42047:1,2010-12-05T00:00:00Z,27.8966,-93.5973,1018.54,11111222 
TABS,ioos:station:wmo:42047:1,2010-12-05T00:30:00Z,27.8966,-93.5973,1018.76,11111222 
TABS,ioos:station:wmo:42047:1,2010-12-05T01:00:00Z,27.8966,-93.5973,1019.09,11111222 
TABS,ioos:station:wmo:42047:1,2010-12-05T01:30:00Z,27.8966,-93.5973,1019.32,11111222 
TABS,ioos:station:wmo:42047:1,2010-12-05T02:00:00Z,27.8966,-93.5973,1019.58,11111222 
TABS,ioos:station:wmo:42047:1,2010-12-05T02:30:00Z,27.8966,-93.5973,1019.79,11111222 
TABS,ioos:station:wmo:42047:1,2010-12-05T03:00:00Z,27.8966,-93.5973,1019.84,11111222 
TABS,ioos:station:wmo:42047:1,2010-12-05T03:30:00Z,27.8966,-93.5973,1019.64,11111222 
TABS,ioos:station:wmo:42047:1,2010-12-05T04:00:00Z,27.8966,-93.5973,1019.89,11111222 
TABS,ioos:station:wmo:42047:1,2010-12-05T04:30:00Z,27.8966,-93.5973,1019.98,11111222 
TABS,ioos:station:wmo:42047:1,2010-12-05T05:00:00Z,27.8966,-93.5973,1019.83,11111222 
TABS,ioos:station:wmo:42047:1,2010-12-05T05:30:00Z,27.8966,-93.5973,1019.85,11111222 
TABS,ioos:station:wmo:42047:1,2010-12-05T06:00:00Z,27.8966,-93.5973,1019.81,11111222 
TABS,ioos:station:wmo:42047:1,2010-12-05T06:30:00Z,27.8966,-93.5973,1019.63,11111222 
TABS,ioos:station:wmo:42047:1,2010-12-05T07:00:00Z,27.8966,-93.5973,1019.5,11111222 
TABS,ioos:station:wmo:42047:1,2010-12-05T07:30:00Z,27.8966,-93.5973,1019.48,11111222 
TABS,ioos:station:wmo:42047:1,2010-12-05T08:00:00Z,27.8966,-93.5973,1019.36,11111222 
TABS,ioos:station:wmo:42047:1,2010-12-05T08:30:00Z,27.8966,-93.5973,1019.27,11111222 
TABS,ioos:station:wmo:42047:1,2010-12-05T09:00:00Z,27.8966,-93.5973,1019.24,11111222 
TABS,ioos:station:wmo:42047:1,2010-12-05T09:30:00Z,27.8966,-93.5973,1019.33,11111222 
TABS,ioos:station:wmo:42047:1,2010-12-05T10:00:00Z,27.8966,-93.5973,1019.35,11111222 
TABS,ioos:station:wmo:42047:1,2010-12-05T10:30:00Z,27.8966,-93.5973,1019.73,11111222 
TABS,ioos:station:wmo:42047:1,2010-12-05T11:00:00Z,27.8966,-93.5973,1019.7,11111222 
TABS,ioos:station:wmo:42047:1,2010-12-05T11:30:00Z,27.8966,-93.5973,1019.78,11111222 
TABS,ioos:station:wmo:42047:1,2010-12-05T12:00:00Z,27.8966,-93.5973,1020.3,11111222 
TABS,ioos:station:wmo:42047:1,2010-12-05T12:30:00Z,27.8966,-93.5973,1020.57,11111222 
TABS,ioos:station:wmo:42047:1,2010-12-05T13:00:00Z,27.8966,-93.5973,1021.26,11111222 
TABS,ioos:station:wmo:42047:1,2010-12-05T13:30:00Z,27.8966,-93.5973,1022.03,11111222 
TABS,ioos:station:wmo:42047:1,2010-12-05T14:00:00Z,27.8966,-93.5973,1022.44,11111222 
TABS,ioos:station:wmo:42047:1,2010-12-05T14:30:00Z,27.8966,-93.5973,1023.12,11111222 
TABS,ioos:station:wmo:42047:1,2010-12-05T15:00:00Z,27.8966,-93.5973,1023.73,11111222 
TABS,ioos:station:wmo:42047:1,2010-12-05T15:30:00Z,27.8966,-93.5973,1023.89,11111222 
TABS,ioos:station:wmo:42047:1,2010-12-05T16:00:00Z,27.8966,-93.5973,1024.18,11111222 
TABS,ioos:station:wmo:42047:1,2010-12-05T16:30:00Z,27.8966,-93.5973,1023.8,11111222 
TABS,ioos:station:wmo:42047:1,2010-12-05T17:00:00Z,27.8966,-93.5973,1023.8,11111222 
TABS,ioos:station:wmo:42047:1,2010-12-05T17:30:00Z,27.8966,-93.5973,1023.38,11111222 
TABS,ioos:station:wmo:42047:1,2010-12-05T18:00:00Z,27.8966,-93.5973,1023.26,11111222 
TABS,ioos:station:wmo:42047:1,2010-12-05T18:30:00Z,27.8966,-93.5973,1023.22,11111222 
TABS,ioos:station:wmo:42047:1,2010-12-05T19:00:00Z,27.8966,-93.5973,1023.22,11111222 
TABS,ioos:station:wmo:42047:1,2010-12-05T19:30:00Z,27.8966,-93.5973,1023.1,11111222 
TABS,ioos:station:wmo:42047:1,2010-12-05T20:00:00Z,27.8966,-93.5973,1023.16,11111222 
TABS,ioos:station:wmo:42047:1,2010-12-05T20:30:00Z,27.8966,-93.5973,1023.28,11111222 
TABS,ioos:station:wmo:42047:1,2010-12-05T21:00:00Z,27.8966,-93.5973,1023.19,11111222 
TABS,ioos:station:wmo:42047:1,2010-12-05T21:30:00Z,27.8966,-93.5973,1023.56,11111222 
TABS,ioos:station:wmo:42047:1,2010-12-05T22:00:00Z,27.8966,-93.5973,1023.74,11111222 
TABS,ioos:station:wmo:42047:1,2010-12-05T22:30:00Z,27.8966,-93.5973,1024.16,11111222 
TABS,ioos:station:wmo:42047:1,2010-12-05T23:00:00Z,27.8966,-93.5973,1024.17,11111222 
TABS,ioos:station:wmo:42047:1,2010-12-05T23:30:00Z,27.8966,-93.5973,1024.6,11111222 
TABS,ioos:station:wmo:42047:1,2010-12-06T00:00:00Z,27.8966,-93.5973,1024.9,11111222 
TABS,ioos:station:wmo:42047:1,2010-12-06T00:30:00Z,27.8966,-93.5973,1025.28,11111222 
TABS,ioos:station:wmo:42047:1,2010-12-06T01:00:00Z,27.8966,-93.5973,1025.83,11111222 
TABS,ioos:station:wmo:42047:1,2010-12-06T01:30:00Z,27.8966,-93.5973,1025.97,11111222 
TABS,ioos:station:wmo:42047:1,2010-12-06T02:00:00Z,27.8966,-93.5973,1026.35,11111222 
TABS,ioos:station:wmo:42047:1,2010-12-06T02:30:00Z,27.8966,-93.5973,1026.4,11111222 
TABS,ioos:station:wmo:42047:1,2010-12-06T03:00:00Z,27.8966,-93.5973,1026.71,11111222 
TABS,ioos:station:wmo:42047:1,2010-12-06T03:30:00Z,27.8966,-93.5973,1026.41,11111222 
TABS,ioos:station:wmo:42047:1,2010-12-06T04:00:00Z,27.8966,-93.5973,1026.6,11111222 
TABS,ioos:station:wmo:42047:1,2010-12-06T04:30:00Z,27.8966,-93.5973,1027.18,11111222 
TABS,ioos:station:wmo:42047:1,2010-12-06T05:00:00Z,27.8966,-93.5973,1027.68,11111222 
TABS,ioos:station:wmo:42047:1,2010-12-06T05:30:00Z,27.8966,-93.5973,1027.46,11111222 
TABS,ioos:station:wmo:42047:1,2010-12-06T06:00:00Z,27.8966,-93.5973,1027.63,11111222 
TABS,ioos:station:wmo:42047:1,2010-12-06T06:30:00Z,27.8966,-93.5973,1027.38,11111222 
TABS,ioos:station:wmo:42047:1,2010-12-06T07:00:00Z,27.8966,-93.5973,1027.15,11111222 
TABS,ioos:station:wmo:42047:1,2010-12-06T07:30:00Z,27.8966,-93.5973,1027.1,11111222 
TABS,ioos:station:wmo:42047:1,2010-12-06T08:00:00Z,27.8966,-93.5973,1026.96,11111222 
TABS,ioos:station:wmo:42047:1,2010-12-06T08:30:00Z,27.8966,-93.5973,1027.01,11111222 
TABS,ioos:station:wmo:42047:1,2010-12-06T09:00:00Z,27.8966,-93.5973,1026.88,11111222 
TABS,ioos:station:wmo:42047:1,2010-12-06T09:30:00Z,27.8966,-93.5973,1026.91,11111222 
TABS,ioos:station:wmo:42047:1,2010-12-06T10:00:00Z,27.8966,-93.5973,1026.67,11111222 
TABS,ioos:station:wmo:42047:1,2010-12-06T10:30:00Z,27.8966,-93.5973,1026.78,11111222 
TABS,ioos:station:wmo:42047:1,2010-12-06T11:00:00Z,27.8966,-93.5973,1027.55,11111222 
TABS,ioos:station:wmo:42047:1,2010-12-06T11:30:00Z,27.8966,-93.5973,1027.78,11111222 
TABS,ioos:station:wmo:42047:1,2010-12-06T12:00:00Z,27.8966,-93.5973,1028.22,11111222 
TABS,ioos:station:wmo:42047:1,2010-12-06T12:30:00Z,27.8966,-93.5973,1028.64,11111222 
TABS,ioos:station:wmo:42047:1,2010-12-06T13:00:00Z,27.8966,-93.5973,1028.71,11111222 
TABS,ioos:station:wmo:42047:1,2010-12-06T13:30:00Z,27.8966,-93.5973,1029.15,11111222 
TABS,ioos:station:wmo:42047:1,2010-12-06T14:00:00Z,27.8966,-93.5973,1029.45,11111222 
TABS,ioos:station:wmo:42047:1,2010-12-06T14:30:00Z,27.8966,-93.5973,1029.43,11111222 
TABS,ioos:station:wmo:42047:1,2010-12-06T15:00:00Z,27.8966,-93.5973,1029.86,11111222 
TABS,ioos:station:wmo:42047:1,2010-12-06T15:30:00Z,27.8966,-93.5973,1030.27,11111222 
TABS,ioos:station:wmo:42047:1,2010-12-06T16:00:00Z,27.8966,-93.5973,1030.63,11111222 
TABS,ioos:station:wmo:42047:1,2010-12-06T16:30:00Z,27.8966,-93.5973,1030.53,11111222 
TABS,ioos:station:wmo:42047:1,2010-12-06T17:00:00Z,27.8966,-93.5973,1029.93,11111222 
TABS,ioos:station:wmo:42047:1,2010-12-06T17:30:00Z,27.8966,-93.5973,1029.61,11111222 
TABS,ioos:station:wmo:42047:1,2010-12-06T18:00:00Z,27.8966,-93.5973,1029.14,11111222 
TABS,ioos:station:wmo:42047:1,2010-12-06T18:30:00Z,27.8966,-93.5973,1028.86,11111222 